Regional Weather Roundup
Issued by NWS

Home | Current Version | Previous Version | Text Only | Print | Product List | Glossary Off
Versions: 1 2 3 4 5 6 7 8 9 10 11 12 13 14 15 16 17 18 19 20 21 22 23 24 25 26 27 28 29 30 31 32 33 34 35 36 37 38 39 40 41 42 43 44 45 46 47 48 49 50

000
ASUS43 KBIS 291210
RWRND

NORTH DAKOTA REGIONAL WEATHER ROUNDUP
NATIONAL WEATHER SERVICE BISMARCK ND
700 AM CDT FRI JUL 29 2016

NOTE: "FAIR" INDICATES FEW OR NO CLOUDS BELOW 12,000 FEET WITH NO
SIGNIFICANT WEATHER AND/OR OBSTRUCTIONS TO VISIBILITY.


NDZ001>003-009>011-017-291300-
NORTHWEST NORTH DAKOTA

CITY           SKY/WX    TMP DP  RH WIND       PRES   REMARKS
WILLISTON      CLEAR     51  49  92 CALM      30.10S
6HR MIN TEMP:  50; 6HR MAX TEMP:  58;

MINOT          MOCLDY    57  53  86 CALM      30.10S
MINOT AFB      CLEAR     50  47  90 W2        30.09S
$$

NDZ018>021-031>035-040>046-291300-
SOUTHWEST NORTH DAKOTA

CITY           SKY/WX    TMP DP  RH WIND       PRES   REMARKS
BISMARCK       CLOUDY    62  61  96 CALM      30.09S
6HR MIN TEMP:  62; 6HR MAX TEMP:  66;

DICKINSON      CLOUDY    56  55  97 CALM      30.10S
GARRISON         N/A     62  60  93 CALM      30.09S
6HR MIN TEMP:  56; 6HR MAX TEMP:  62;

HETTINGER ARPT FOG       51  49  92 CALM      30.13S VSB<1/4
$$

NDZ004>008-012>016-024-026-027-054-291300-
NORTHEAST NORTH DAKOTA

CITY           SKY/WX    TMP DP  RH WIND       PRES   REMARKS
GRAND FORKS    PTCLDY    54  51  90 W5        30.08S
GRND FRKS AFB  CLEAR     55  53  93 NW6       30.09S
DEVILS LAKE    PTCLDY    56  54  93 SW3       30.11S
$$

NDZ022-023-025-028>030-036>039-047>053-291300-
SOUTHEAST NORTH DAKOTA

CITY           SKY/WX    TMP DP  RH WIND       PRES   REMARKS
FARGO          CLEAR     59  55  87 N3        30.08S
6HR MIN TEMP:  58; 6HR MAX TEMP:  65;

JAMESTOWN      CLOUDY    61  59  93 CALM      30.10S
$$





USA.gov is the U.S. government's official web portal to all federal, state and local government web resources and services.